Location: Asheville, NC
(35.6000°N, 82.5500°W)
Time: 04:28:24
(UTC-05:00)

Vanguard 1 Rocket - Pass Details

Date: 11 December 2017
Orbit: 656 x 4222 km, 34.3° (Epoch: 17 January)

Event Time Altitude Azimuth Distance (km) Brightness Sun altitude
Rises 23:21:39 0° 285° (WNW) 6,785 12.1 -71.6°
Reaches altitude 10° 23:25:33 10° 283° (WNW) 6,134 11.7 -72.2°
Enters shadow 23:33:12 32° 274° (W) 5,098 11.0 -73.3°
Exits shadow 00:15:53 - 132° (SE) 7,497 11.9 -77.3°
Sets 00:16:45 0° 131° (SE) 7,631 12.0 -77.3°
